Estación de Morza Norte
Ultimos registro cada 15 minutos 60
| N° | Estación | Fecha / Hora | Temperatura | Humedad | Lluvia | Velocidad | Dirección | Radiación | Presion |
| 60 | Morza Norte | 10-05-2026 15:00 | 20,3 | 43 | 0 | 0 | 281 | 396 | 1014,8 |
| 59 | Morza Norte | 10-05-2026 14:45 | 19,8 | 99 | 0 | 0,9 | 153 | 425 | 1014,8 |
| 58 | Morza Norte | 10-05-2026 14:30 | 19,8 | 43 | 0 | 0 | 106 | 53 | 1015 |
| 57 | Morza Norte | 10-05-2026 14:15 | 19,7 | 45 | 0 | 0 | 272 | 81 | 1015,4 |
| 56 | Morza Norte | 10-05-2026 14:00 | 18,9 | 45 | 0 | 0 | 274 | 308 | 1015,4 |
| 55 | Morza Norte | 10-05-2026 13:45 | 18,4 | 99 | 0 | 0 | 341 | 128 | 1015,4 |
| 54 | Morza Norte | 10-05-2026 13:30 | 17,9 | 45 | 0 | 0 | 291 | 51 | 1015,8 |
| 53 | Morza Norte | 10-05-2026 13:15 | 17,2 | 48 | 0 | 0 | 297 | 473 | 1015,9 |
| 52 | Morza Norte | 10-05-2026 13:00 | 16,5 | 46 | 0 | 0,4 | 137 | 543 | 1016,2 |
| 51 | Morza Norte | 10-05-2026 12:45 | 16 | 99 | 0 | 0,4 | 277 | 547 | 1016,6 |
| 50 | Morza Norte | 10-05-2026 12:30 | 15,4 | 51 | 0 | 0 | 300 | 339 | 1016,8 |
| 49 | Morza Norte | 10-05-2026 12:15 | 14,8 | 52 | 0 | 0,4 | 268 | 545 | 1016,8 |
| 48 | Morza Norte | 10-05-2026 12:00 | 13,9 | 58 | 0 | 0 | 265 | 540 | 1017 |
| 47 | Morza Norte | 10-05-2026 11:45 | 12,7 | 99 | 0 | 0 | 179 | 529 | 1017 |
| 46 | Morza Norte | 10-05-2026 11:30 | 11,1 | 69 | 0 | 0 | 277 | 517 | 1017,1 |
| 45 | Morza Norte | 10-05-2026 11:15 | 10,3 | 74 | 0 | 0 | 137 | 501 | 1017,3 |
| 44 | Morza Norte | 10-05-2026 11:00 | 10,1 | 74 | 0 | 0 | 311 | 475 | 1017,5 |
| 43 | Morza Norte | 10-05-2026 10:45 | 9,4 | 99 | 0 | 0 | 17 | 448 | 1017,6 |
| 42 | Morza Norte | 10-05-2026 10:30 | 8,3 | 74 | 0 | 0 | 25 | 422 | 1017,5 |
| 41 | Morza Norte | 10-05-2026 10:15 | 7,4 | 74 | 0 | 0 | 60 | 396 | 1017,7 |
| 40 | Morza Norte | 10-05-2026 10:00 | 6,9 | 74 | 0 | 0 | 56 | 373 | 1017,6 |
| 39 | Morza Norte | 10-05-2026 09:45 | 5,9 | 99 | 0 | 0 | 108 | 232 | 1017,8 |
| 38 | Morza Norte | 10-05-2026 09:30 | 4,2 | 74 | 0 | 0 | 109 | 192 | 1018,1 |
| 37 | Morza Norte | 10-05-2026 09:15 | 3 | 73 | 0 | 0 | 140 | 172 | 1017,8 |
| 36 | Morza Norte | 10-05-2026 09:00 | 2,3 | 73 | 0 | 0 | 106 | 142 | 1017,8 |
| 35 | Morza Norte | 10-05-2026 08:45 | 1,6 | 99 | 0,2 | 0 | 106 | 100 | 1017,9 |
| 34 | Morza Norte | 10-05-2026 08:30 | 1,2 | 73 | 0 | 0 | 106 | 69 | 1017,7 |
| 33 | Morza Norte | 10-05-2026 08:15 | 0,6 | 73 | 0 | 0 | 106 | 49 | 1017,4 |
| 32 | Morza Norte | 10-05-2026 08:00 | 0,2 | 72 | 0 | 0 | 116 | 33 | 1017,5 |
| 31 | Morza Norte | 10-05-2026 07:45 | 0,3 | 99 | 0 | 0 | 114 | 9 | 1017,6 |
| 30 | Morza Norte | 10-05-2026 07:30 | 0,3 | 72 | 0 | 0 | 114 | 0 | 1017,6 |
| 29 | Morza Norte | 10-05-2026 07:15 | 0,3 | 72 | 0 | 0 | 114 | 0 | 1017,8 |
| 28 | Morza Norte | 10-05-2026 07:00 | 0,4 | 72 | 0 | 0 | 114 | 0 | 1017,4 |
| 27 | Morza Norte | 10-05-2026 06:45 | 0,5 | 99 | 0 | 0 | 114 | 0 | 1017,4 |
| 26 | Morza Norte | 10-05-2026 06:30 | 0,2 | 72 | 0 | 0 | 68 | 0 | 1017,5 |
| 25 | Morza Norte | 10-05-2026 06:15 | 0,3 | 72 | 0 | 0 | 68 | 0 | 1017,2 |
| 24 | Morza Norte | 10-05-2026 06:00 | 0,3 | 72 | 0 | 0 | 68 | 0 | 1017,1 |
| 23 | Morza Norte | 10-05-2026 05:45 | 0,5 | 99 | 0 | 0 | 67 | 0 | 1016,9 |
| 22 | Morza Norte | 10-05-2026 05:30 | 0,2 | 72 | 0 | 0 | 67 | 0 | 1016,9 |
| 21 | Morza Norte | 10-05-2026 05:15 | -0,1 | 72 | 0 | 0 | 67 | 0 | 1017 |
| 20 | Morza Norte | 10-05-2026 05:00 | 0 | 72 | 0 | 0 | 67 | 0 | 1017 |
| 19 | Morza Norte | 10-05-2026 04:45 | 0 | 99 | 0 | 0 | 67 | 0 | 1017,1 |
| 18 | Morza Norte | 10-05-2026 04:30 | 0,2 | 72 | 0 | 0 | 67 | 0 | 1017 |
| 17 | Morza Norte | 10-05-2026 04:15 | 0,7 | 72 | 0 | 0 | 67 | 0 | 1017 |
| 16 | Morza Norte | 10-05-2026 04:00 | 0,7 | 72 | 0 | 0 | 67 | 0 | 1017 |
| 15 | Morza Norte | 10-05-2026 03:45 | 0,3 | 99 | 0 | 0 | 67 | 0 | 1017,1 |
| 14 | Morza Norte | 10-05-2026 03:30 | 0,7 | 72 | 0 | 0 | 67 | 0 | 1017,1 |
| 13 | Morza Norte | 10-05-2026 03:15 | 0,4 | 72 | 0 | 0 | 67 | 0 | 1017,2 |
| 12 | Morza Norte | 10-05-2026 03:00 | 0,7 | 71 | 0 | 0 | 67 | 0 | 1017,4 |
| 11 | Morza Norte | 10-05-2026 02:45 | 1,1 | 99 | 0 | 0 | 67 | 0 | 1017,5 |
| 10 | Morza Norte | 10-05-2026 02:30 | 1,7 | 71 | 0 | 0 | 66 | 0 | 1017,6 |
| 9 | Morza Norte | 10-05-2026 02:15 | 1,9 | 72 | 0 | 0 | 152 | 0 | 1017,7 |
| 8 | Morza Norte | 10-05-2026 02:00 | 1,8 | 72 | 0 | 0 | 152 | 0 | 1017,9 |
| 7 | Morza Norte | 10-05-2026 01:45 | 1,7 | 71 | 0 | 0 | 152 | 0 | 1017,8 |
| 6 | Morza Norte | 10-05-2026 01:30 | 1,9 | 72 | 0 | 0 | 152 | 0 | 1017,8 |
| 5 | Morza Norte | 10-05-2026 01:15 | 2,2 | 71 | 0 | 0 | 151 | 0 | 1017,8 |
| 4 | Morza Norte | 10-05-2026 00:45 | 2,2 | 71 | 0 | 0 | 151 | 0 | 1017,8 |
| 3 | Morza Norte | 10-05-2026 00:30 | 2,7 | 99 | 0 | 0 | 152 | 0 | 1017,9 |
| 2 | Morza Norte | 10-05-2026 00:15 | 3,4 | 71 | 0 | 0 | 151 | 0 | 1018 |
| 1 | Morza Norte | 10-05-2026 00:00 | 3,2 | 71 | 0 | 0 | 151 | 0 | 1018,1 |